Home > Weather > Bamako > Past weeks

Flag for Mali Past Weather in Bamako, Mali — Yesterday and Last 2 Weeks

Now
81 °F

Passing clouds.


Feels Like: 85 °F
Forecast: 72 / 93 °F
Wind: 9 mph from Southwest

Location: Bamako / Senou

Current Time: Jul 27, 2016 at 9:52:43 AM

Latest Report: Jul 27, 2016 at 9:30 AM


Visibility: N/A

Pressure: 29.95 "Hg

Humidity: 79%

Dew Point: 73 °F

Location of BamakoLocation

Past Weather in Bamako — Graph

°F

Bamako Temperature Yesterday

Maximum temperature yesterday: 90 °F (at 3:30 PM)
Minimum temperature yesterday: 72 °F (at 3:30 AM)
Average temperature yesterday: 80 °F

High & Low Weather Summary for the Past Weeks

 TemperatureHumidityPressure
High93 °F (Jul 15, 4:30 PM)100% (Jul 12, 9:00 AM)30.04 "Hg (Jul 12, 9:00 AM)
Low70 °F (Jul 23, 3:00 AM)44% (Jul 16, 2:00 PM)29.83 "Hg (Jul 16, 5:00 PM)
Average78 °F88%29.94 "Hg
* Reported Jul 12 9:00 AM — Jul 27 9:00 AM, Bamako, Weather by CustomWeather, © 2016

Note: Actual official high and low records may vary slightly from our data, if they occured in-between our weather recording intervals... More about our weather records

Advertising

Bamako Weather History for the Previous 24 Hours

Scroll right to see more
 ConditionsComfort  
Time TempWeatherWind HumidityBarometerVisibility
9:00 AM
Wed, Jul 27
81 °FPassing clouds.9 mph84%29.95 "HgN/A
8:30 AM79 °FPassing clouds.7 mph89%29.95 "HgN/A
8:00 AM79 °FPassing clouds.7 mph94%29.92 "HgN/A
7:30 AM77 °FPassing clouds.6 mph100%29.92 "HgN/A
7:00 AM75 °FPassing clouds.5 mph100%29.92 "HgN/A
6:30 AM75 °FPassing clouds.5 mph100%29.92 "HgN/A
6:00 AM75 °FPassing clouds.5 mph100%29.92 "HgN/A
5:30 AM75 °FPassing clouds.5 mph100%29.92 "HgN/A
5:00 AM75 °FPassing clouds.5 mph100%29.92 "HgN/A
4:30 AM75 °FPassing clouds.3 mph100%29.92 "HgN/A
4:00 AM77 °FPassing clouds.3 mph100%29.92 "HgN/A
3:30 AM77 °FPassing clouds.5 mph100%29.92 "HgN/A
3:00 AM77 °FPassing clouds.5 mph100%29.89 "HgN/A
2:30 AM79 °FPassing clouds.2 mph94%29.89 "HgN/A
1:30 AM79 °FThunderstorms. Passing clouds.3 mph100%29.92 "HgN/A
1:00 AM79 °FThunderstorms. Passing clouds.1 mph100%29.92 "HgN/A
12:30 AM79 °FThunderstorms. Passing clouds.1 mph100%29.92 "HgN/A
12:00 AM79 °FThunderstorms. Passing clouds.No wind100%29.95 "HgN/A
11:30 PM
Tue, Jul 26
79 °FThunderstorms. Passing clouds.No wind100%29.98 "HgN/A
11:00 PM81 °FThunderstorms. Passing clouds.2 mph89%29.95 "HgN/A
10:30 PM81 °FThunderstorms. Passing clouds.2 mph89%29.95 "HgN/A
10:00 PM82 °FThunderstorms. Passing clouds.1 mph84%29.95 "HgN/A
9:30 PM82 °FThunderstorms. Passing clouds.5 mph84%29.95 "HgN/A
9:00 PM81 °FPassing clouds.5 mph84%29.92 "HgN/A
8:30 PM82 °FPassing clouds.3 mph84%29.92 "HgN/A
8:00 PM84 °FPassing clouds.3 mph79%29.92 "HgN/A
7:30 PM84 °FPassing clouds.2 mph74%29.89 "HgN/A
7:00 PM84 °FPassing clouds.3 mph70%29.89 "HgN/A
6:30 PM86 °FPassing clouds.6 mph66%29.89 "HgN/A
6:00 PM88 °FPassing clouds.3 mph62%29.89 "HgN/A
5:30 PM88 °FPassing clouds.3 mph59%29.86 "HgN/A
5:00 PM88 °FPassing clouds.5 mph55%29.86 "HgN/A
4:30 PM88 °FScattered clouds.6 mph62%29.89 "HgN/A
4:00 PM88 °FScattered clouds.3 mph59%29.89 "HgN/A
3:30 PM90 °FScattered clouds.2 mph59%29.92 "HgN/A
3:00 PM88 °FScattered clouds.5 mph59%29.92 "HgN/A
2:00 PM88 °FScattered clouds.8 mph59%29.95 "HgN/A
1:30 PM88 °FScattered clouds.6 mph59%29.95 "HgN/A
1:00 PM86 °FScattered clouds.2 mph59%29.95 "HgN/A
12:30 PM86 °FPassing clouds.2 mph59%29.98 "HgN/A
12:00 PM86 °FPassing clouds.2 mph62%29.98 "HgN/A
11:30 AM86 °FPassing clouds.1 mph66%29.98 "HgN/A
11:00 AM84 °FPassing clouds.2 mph70%29.98 "HgN/A
10:30 AM82 °FPassing clouds.1 mph79%30.01 "Hg5 mi
10:00 AM81 °FPassing clouds.1 mph89%29.98 "Hg5 mi
9:30 AM79 °FPassing clouds.No wind94%30.01 "Hg5 mi
9:00 AM77 °FPassing clouds.No wind100%30.01 "Hg5 mi
Weather by CustomWeather, © 2016

See weather overviewHow to use our weather pages